{"data":{"norad_id":48442,"intl_designator":"2021-040Q","name":"STARLINK-2644","alt_names":[],"object_type":"PAYLOAD","status":"ACTIVE","operator":null,"country":"US","launch_date":"2021-05-09","launch_site_code":"AFETR","launch_vehicle":null,"mission":null,"orbit_class":"UNKNOWN","rcs_meters":null,"size_class":null,"mass_kg":null,"dimensions":null,"purposes":["comms"],"wikipedia_slug":null,"has_3d_model":false,"image_url":null,"decayed_at":null,"tle_current":{"epoch":"2026-09-20T03:52:37.123392Z","epoch_age_seconds":66567,"freshness":"FRESH","line1":"1 48442U 21040Q   26263.16154078  .00104434  00000+0  61371-3 0  9996","line2":"2 48442  53.1548 329.7321 0007951   6.4561 353.6562 15.77433106296803","mean_motion":15.77433106,"eccentricity":0.0007951,"inclination_deg":53.1548,"raan_deg":329.7321,"arg_perigee_deg":6.4561,"mean_anomaly_deg":353.6562,"bstar":0.00061371,"rev_number":29680,"period_min":91.287547758618,"perigee_km":332.37662165536,"apogee_km":343.05617172677,"semimajor_km":6715.8533966911,"source":"CELESTRAK","updated_at":"2026-09-20T09:00:39.125601Z"}}}